Date String (YYYY-MM-DD hh:mm:ss) UTC,Instrument flags,Ambient pressure (hPa),Sample flow (lpm),Bypass flow (lpm),Sample temperature (°C),Ambient temperature (°C),ASC tube jacket temperature (°C),LED temperature (°C),Box temperature (°C),Sample RH (%),Span deviation,Mass concentration (μg/m³),Mass concentration (μg/m³),Mass concentration (μg/m³)
DateTimeUTC,F1_M11,P_M11,Q1_M11,Q2_M11,T1_M11,T2_M11,T3_M11,T4_M11,T5_M11,U1_M11,ZSPAN_M11,X0_M11,X2_M11,X1_M11
2023-01-06 02:00:00,,0823.0,5.01,0.00,22.2,22.7,00.0,30.9,24.2,10.3,0000.1,0017.48,0011.07,0010.25
2023-01-06 02:01:00,,0822.9,4.99,0.00,22.3,22.6,00.0,30.9,24.3,10.0,-000.3,0017.82,0010.96,0010.17
2023-01-06 02:02:00,,0822.8,5.00,0.00,22.3,22.2,00.0,31.0,24.3,09.9,-000.7,0017.29,0010.75,0010.01
2023-01-06 02:03:00,,0822.8,5.01,0.00,22.3,21.9,00.0,31.0,24.2,10.0,-001.1,0016.67,0010.59,0009.86
2023-01-06 02:04:00,,0822.8,5.00,0.00,22.3,21.6,00.0,31.0,24.2,09.9,-001.0,0016.55,0010.48,0009.73
2023-01-06 02:05:00,,0822.8,4.99,0.00,22.3,21.4,00.0,31.1,24.1,09.8,-001.3,0016.16,0010.42,0009.64
2023-01-06 02:06:00,,0822.7,4.99,0.00,22.3,21.3,00.0,31.1,24.1,09.8,-001.4,0016.20,0010.38,0009.56
2023-01-06 02:07:00,,0822.8,5.01,0.00,22.3,21.2,00.0,31.1,24.1,09.8,-001.5,0016.37,0010.39,0009.52
2023-01-06 02:08:00,,0822.8,5.00,0.00,22.3,21.2,00.0,31.1,24.1,09.7,-001.5,0016.72,0010.34,0009.47
2023-01-06 02:09:00,,0822.8,5.00,0.00,22.3,21.2,00.0,31.1,24.1,09.7,-001.5,0016.67,0010.30,0009.44
2023-01-06 02:10:00,,0822.9,5.00,0.00,22.3,21.1,00.0,31.1,24.1,09.7,-001.4,0016.28,0010.18,0009.35
2023-01-06 02:11:00,,0822.9,5.01,0.00,22.3,21.1,00.0,31.1,24.1,09.8,-002.0,0015.58,0010.06,0009.25
2023-01-06 02:12:00,,0822.8,5.01,0.00,22.3,21.1,00.0,31.1,24.1,09.7,-001.9,0014.95,0010.05,0009.21
2023-01-06 02:13:00,,0822.9,5.03,0.00,22.3,21.1,00.0,31.1,24.1,09.6,-001.5,0014.89,0010.02,0009.21
2023-01-06 02:14:00,,0823.0,5.00,0.00,22.3,21.1,00.0,31.1,24.1,09.6,-001.8,0015.27,0009.95,0009.15
2023-01-06 02:15:00,,0823.1,5.00,0.00,22.3,21.1,00.0,31.1,24.0,09.5,-001.8,0015.11,0009.83,0009.07
2023-01-06 02:16:00,,0823.1,4.99,0.00,22.3,21.0,00.0,31.1,24.0,09.5,-001.1,0014.68,0009.74,0009.04
2023-01-06 02:17:00,,0823.0,4.99,0.00,22.3,21.0,00.0,31.1,24.0,09.5,-000.2,0015.07,0009.64,0008.99
2023-01-06 02:18:00,,0822.9,5.00,0.00,22.3,20.9,00.0,31.1,24.0,09.3,0000.0,0014.63,0009.47,0008.92
2023-01-06 02:19:00,,0822.9,5.01,0.00,22.2,20.9,00.0,31.1,24.0,09.4,0000.6,0014.10,0009.42,0008.88
2023-01-06 02:20:00,,0822.9,5.00,0.00,22.2,20.9,00.0,31.1,24.0,09.5,0001.0,0014.50,0009.43,0008.89
2023-01-06 02:21:00,,0823.0,5.00,0.00,22.2,20.9,00.0,31.1,24.0,09.6,0001.5,0014.62,0009.43,0008.90
2023-01-06 02:22:00,,0823.0,5.01,0.00,22.2,20.9,00.0,31.1,24.0,09.7,0000.1,0014.78,0009.48,0008.92
2023-01-06 02:23:00,,0822.9,5.00,0.00,22.2,20.8,00.0,31.1,23.9,09.6,0000.0,0014.97,0009.48,0008.94
2023-01-06 02:24:00,,0822.9,5.00,0.00,22.2,20.8,00.0,31.1,23.9,09.4,0000.0,0015.47,0009.52,0008.92
2023-01-06 02:25:00,,0822.9,5.01,0.00,22.2,21.4,00.0,31.0,24.1,09.2,0000.0,0015.54,0009.51,0008.91
2023-01-06 02:26:00,,0822.8,5.00,0.00,22.3,22.2,00.0,31.0,24.3,09.1,0000.0,0015.91,0009.49,0008.92
2023-01-06 02:27:00,,0822.8,5.00,0.00,22.5,22.8,00.0,31.1,24.5,09.1,0000.0,0016.10,0009.51,0008.92
2023-01-06 02:28:00,,0822.7,4.99,0.00,22.5,22.5,00.0,31.1,24.5,09.0,0002.5,0015.74,0009.53,0008.93
2023-01-06 02:29:00,,0822.7,5.00,0.00,22.5,22.1,00.0,31.2,24.4,09.1,0003.2,0017.17,0009.63,0008.98
2023-01-06 02:30:00,,0822.7,5.01,0.00,22.5,21.8,00.0,31.2,24.3,09.2,0002.7,0017.83,0009.71,0009.04
2023-01-06 02:31:00,,0822.7,5.00,0.00,22.5,21.6,00.0,31.2,24.3,09.3,0002.7,0017.48,0009.75,0009.08
2023-01-06 02:32:00,,0822.8,5.01,0.00,22.5,21.5,00.0,31.2,24.3,09.4,0002.7,0017.43,0009.82,0009.12
2023-01-06 02:33:00,,0822.9,5.00,0.00,22.5,21.4,00.0,31.2,24.2,09.3,0002.7,0017.24,0009.82,0009.13
2023-01-06 02:34:00,,0823.0,5.00,0.00,22.4,21.2,00.0,31.2,24.1,09.1,0002.7,0016.90,0009.79,0009.11
2023-01-06 02:35:00,,0822.9,5.01,0.00,22.4,21.1,00.0,31.2,24.1,08.9,0002.8,0016.36,0009.74,0009.10
2023-01-06 02:36:00,,0822.8,5.00,0.00,22.4,21.0,00.0,31.2,24.1,08.9,0002.3,0015.86,0009.70,0009.08
2023-01-06 02:37:00,,0822.7,5.01,0.00,22.3,20.9,00.0,31.2,24.0,08.9,0001.8,0015.47,0009.69,0009.06
2023-01-06 02:38:00,,0822.8,5.00,0.00,22.3,20.8,00.0,31.2,24.0,08.9,0001.5,0015.43,0009.69,0009.03
2023-01-06 02:39:00,,0822.9,4.99,0.00,22.3,20.8,00.0,31.2,23.9,08.9,0002.0,0015.67,0009.67,0009.02
2023-01-06 02:40:00,,0823.0,5.00,0.00,22.3,20.8,00.0,31.2,23.9,08.9,0002.5,0014.42,0009.61,0008.97
2023-01-06 02:41:00,,0822.9,5.00,0.00,22.2,20.8,00.0,31.2,23.9,08.9,0003.2,0013.82,0009.53,0008.90
2023-01-06 02:42:00,,0822.7,5.00,0.00,22.2,20.7,00.0,31.1,23.9,08.9,0003.6,0013.99,0009.47,0008.83
2023-01-06 02:43:00,,0822.7,5.01,0.00,22.2,21.3,00.0,31.1,24.0,09.0,0003.4,0014.72,0009.33,0008.74
2023-01-06 02:44:00,,0822.7,5.00,0.00,22.4,22.2,00.0,31.1,24.3,08.9,0003.4,0014.66,0009.23,0008.67
2023-01-06 02:45:00,,0822.7,5.00,0.00,22.5,22.8,00.0,31.1,24.5,08.9,0002.7,0014.86,0009.20,0008.63
2023-01-06 02:46:00,,0822.6,4.99,0.00,22.5,22.5,00.0,31.2,24.5,08.8,0002.3,0014.92,0009.19,0008.62
2023-01-06 02:47:00,,0822.6,4.99,0.00,22.5,22.0,00.0,31.2,24.3,08.9,0002.6,0014.71,0009.19,0008.62
2023-01-06 02:48:00,,0822.6,5.00,0.00,22.5,21.7,00.0,31.2,24.2,09.0,0003.3,0014.77,0009.15,0008.60
2023-01-06 02:49:00,,0822.4,5.01,0.00,22.4,21.5,00.0,31.2,24.2,09.0,0003.2,0015.21,0009.11,0008.57
2023-01-06 02:50:00,,0822.4,5.00,0.00,22.4,21.3,00.0,31.2,24.2,09.0,0002.7,0014.51,0009.00,0008.50
2023-01-06 02:51:00,,0822.5,5.00,0.00,22.4,21.2,00.0,31.2,24.2,08.9,0002.8,0014.31,0008.91,0008.44
2023-01-06 02:52:00,,0822.6,5.00,0.00,22.4,21.2,00.0,31.3,24.2,08.9,0001.0,0014.15,0008.83,0008.38
2023-01-06 02:53:00,,0822.7,5.00,0.00,22.4,21.0,00.0,31.2,24.1,08.9,0000.0,0013.94,0008.73,0008.30
2023-01-06 02:54:00,,0822.7,4.99,0.00,22.3,20.7,00.0,31.2,23.9,08.9,0000.0,0012.94,0008.69,0008.23
2023-01-06 02:55:00,,0822.7,5.01,0.00,22.3,20.6,00.0,31.2,23.9,09.0,0000.0,0012.89,0008.65,0008.21
2023-01-06 02:56:00,,0822.7,5.00,0.00,22.2,20.6,00.0,31.2,23.9,09.1,0000.0,0013.41,0008.60,0008.14
2023-01-06 02:57:00,,0822.6,5.01,0.00,22.2,20.6,00.0,31.2,23.9,09.1,0000.0,0013.39,0008.53,0008.05
2023-01-06 02:58:00,,0822.6,4.99,0.00,22.2,20.6,00.0,31.2,23.9,09.1,0000.0,0013.28,0008.44,0007.95
2023-01-06 02:59:00,,0822.7,5.00,0.00,22.2,20.7,00.0,31.2,23.8,09.1,0000.0,0012.94,0008.38,0007.87
